Weather History for Lander, WY

Change the Weather History Date:

Sunday, March 30, 2014

  Actual Average Record
Temperature  
Mean Temperature 44 °F 40 °F  
Max Temperature 58 °F 52 °F 76 °F (1966)
Min Temperature 30 °F 28 °F 2 °F (1936)
Degree Days  
Heating Degree Days 21 25  
Month to date heating degree days 865 890  
Since 1 July heating degree days 6601 6594  
Cooling Degree Days 0 0  
Month to date cooling degree days 0 0  
Year to date cooling degree days 0 0  
Moisture  
Dew Point 30 °F    
Average Humidity 68    
Maximum Humidity 100    
Minimum Humidity 36    
Precipitation  
Precipitation 0.36 in 0.05 in 0.80 in (1897)
Month to date precipitation 1.18 1.11  
Year to date precipitation 1.98 2.10  
Snow  
Snow 2.40 in 0.60 in - ()
Month to date snowfall 13.7 15.5  
Since 1 July snowfall 69.0 69.1  
Snow Depth 2.00 in    
Sea Level Pressure  
Sea Level Pressure 29.56 in    
Wind  
Wind Speed 11 mph (WNW)    
Max Wind Speed 43 mph    
Max Gust Speed 49 mph    
Visibility 7 miles    
Events Fog , Rain , Snow    
T = Trace of Precipitation, MM = Missing Value Source: NWS Daily Summary

Daily Weather History Graph

Daily Weather History Graph

Search for Another Location

Airport:

Trip Planner

Search our weather history database for the weather conditions in past years. The results will help you decide how hot, cold, wet, or windy it might be!

Date:

Astronomy

Mar. 30, 2014 Rise Set
Actual Time 7:00 AM MDT 7:38 PM MDT
Civil Twilight 6:31 AM MDT 8:07 PM MDT
Nautical Twilight 5:58 AM MDT 8:41 PM MDT
Astronomical Twilight 5:23 AM MDT 9:16 PM MDT
Moon 6:48 AM MDT (3/30) 7:55 PM MDT (3/30)
Length of Visible Light 13h 35m
Length of Day
12h 38m
Waning Crescent, 0% of the Moon is Illuminated
Mar 30
Waning Crescent
Mar 30
New
Apr 7
First Quarter
Apr 15
Full
Apr 22
Last Quarter

Hourly Weather History & Observations

Time (MDT) Temp. Windchill Dew Point Humidity Pressure Visibility Wind Dir Wind Speed Gust Speed Precip Events Conditions
12:53 AM 45.0 °F 39.7 °F 19.9 °F 37% 29.65 in 10.0 mi East 10.4 mph - N/A   Clear
1:53 AM 42.1 °F - 21.0 °F 43% 29.65 in 10.0 mi North - - N/A   Clear
2:53 AM 41.0 °F 34.3 °F 21.0 °F 45% 29.63 in 10.0 mi NNW 11.5 mph - N/A   Clear
3:53 AM 42.1 °F 36.6 °F 21.0 °F 43% 29.60 in 10.0 mi NNW 9.2 mph - N/A   Clear
4:53 AM 36.0 °F 29.6 °F 21.9 °F 57% 29.60 in 10.0 mi WNW 8.1 mph - N/A   Partly Cloudy
5:53 AM 39.0 °F 32.3 °F 21.9 °F 50% 29.59 in 10.0 mi NNW 10.4 mph - N/A   Scattered Clouds
6:53 AM 45.0 °F 41.2 °F 23.0 °F 42% 29.55 in 10.0 mi NNE 6.9 mph - N/A   Mostly Cloudy
7:53 AM 39.0 °F 35.7 °F 23.0 °F 53% 29.58 in 10.0 mi East 4.6 mph - N/A   Mostly Cloudy
8:53 AM 42.1 °F 38.4 °F 27.0 °F 55% 29.55 in 10.0 mi SE 5.8 mph - N/A   Overcast
9:53 AM 48.9 °F - 30.0 °F 48% 29.54 in 10.0 mi South 17.3 mph 49.5 mph N/A   Mostly Cloudy
10:53 AM 51.1 °F - 30.0 °F 44% 29.49 in 10.0 mi SSE 16.1 mph 20.7 mph N/A   Mostly Cloudy
11:53 AM 54.0 °F - 30.9 °F 41% 29.44 in 10.0 mi South 18.4 mph 38.0 mph N/A   Partly Cloudy
12:53 PM 57.0 °F - 30.9 °F 37% 29.41 in 10.0 mi North 18.4 mph 26.5 mph N/A   Scattered Clouds
1:19 PM 52.0 °F - 32.0 °F 47% 29.51 in 10.0 mi Variable 3.5 mph 27.6 mph N/A   Mostly Cloudy
1:53 PM 52.0 °F - 30.9 °F 45% 29.42 in 10.0 mi North - - N/A   Overcast
2:53 PM 44.1 °F 39.5 °F 37.0 °F 76% 29.44 in 5.0 mi SW 8.1 mph 33.4 mph 0.00 in Rain Light Rain
3:51 PM 44.6 °F 37.8 °F 37.4 °F 76% 29.45 in 7.0 mi South 15.0 mph 20.7 mph 0.00 in Rain Light Rain
3:53 PM 45.0 °F 38.2 °F 37.9 °F 76% 29.40 in 8.0 mi South 15.0 mph 20.7 mph 0.00 in Rain Light Rain
4:00 PM 46.0 °F 40.2 °F 37.0 °F 71% 29.46 in 10.0 mi SSE 12.7 mph - 0.00 in   Scattered Clouds
4:53 PM 43.0 °F 33.5 °F 34.0 °F 71% 29.42 in 8.0 mi South 24.2 mph 34.5 mph 0.00 in Rain Light Rain
5:53 PM 42.1 °F 37.7 °F 36.0 °F 79% 29.42 in 10.0 mi ESE 6.9 mph - 0.00 in   Overcast
6:53 PM 44.1 °F - 35.1 °F 71% 29.42 in 10.0 mi Calm Calm - N/A   Scattered Clouds
7:16 PM 35.1 °F 23.8 °F 32.0 °F 89% 29.54 in 10.0 mi NNE 20.7 mph 38.0 mph N/A   Overcast
7:28 PM 34.0 °F 25.5 °F 32.0 °F 92% 29.57 in 7.0 mi North 11.5 mph - 0.00 in Snow Light Snow
7:42 PM 33.1 °F 23.4 °F 30.9 °F 92% 29.59 in 4.0 mi NNW 13.8 mph 23.0 mph 0.00 in Snow Light Snow
7:48 PM 33.8 °F 23.9 °F 30.2 °F 87% 29.60 in 1.8 mi NNW 15.0 mph - 0.03 in Snow Light Snow
7:53 PM 32.0 °F 23.6 °F 30.9 °F 96% 29.61 in 1.2 mi NNW 10.4 mph - 0.05 in Snow Light Snow
7:59 PM 32.0 °F 26.4 °F 32.0 °F 100% 29.60 in 0.8 mi NNW 5.8 mph - 0.02 in Snow Light Snow
8:53 PM 32.0 °F 27.5 °F 32.0 °F 100% 29.64 in 0.5 mi WNW 4.6 mph - 0.13 in Fog , Snow Snow
9:07 PM 32.0 °F 20.8 °F 30.9 °F 96% 29.64 in 0.5 mi NW 17.3 mph - 0.03 in Fog , Snow Snow
9:35 PM 30.9 °F 20.2 °F 30.9 °F 100% 29.66 in 0.5 mi NW 15.0 mph - 0.06 in Fog , Snow Snow
9:53 PM 30.0 °F 18.3 °F 30.0 °F 100% 29.65 in 0.5 mi WNW 17.3 mph - 0.09 in Fog , Snow Snow
10:53 PM 30.9 °F 19.8 °F 30.0 °F 96% 29.68 in 0.8 mi WNW 16.1 mph - 0.07 in Snow Light Snow
11:12 PM 30.9 °F 21.7 °F 30.0 °F 96% 29.71 in 1.0 mi West 11.5 mph - 0.01 in Snow Light Snow
11:44 PM 30.9 °F 23.5 °F 28.9 °F 92% 29.73 in 2.5 mi West 8.1 mph - 0.02 in Snow Light Snow
11:51 PM 30.2 °F 21.3 °F 28.4 °F 93% 29.74 in 3.0 mi WSW 10.4 mph - 0.02 in Snow Light Snow
11:53 PM 30.9 °F 22.2 °F 28.9 °F 92% 29.70 in 3.0 mi West 10.4 mph - 0.02 in Snow Light Snow